Miscellaneous Local Product
Issued by NWS Hastings, NE

Home | Current Version | Previous Version | Text Only | Print | Product List | Glossary Off
Versions: 1 2 3 4 5 6 7 8 9 10 11 12 13 14 15 16 17 18 19 20 21 22 23 24 25 26 27 28 29 30 31 32 33 34 35 36 37 38 39 40 41 42 43 44 45 46 47 48 49 50

000
AXUS43 KGID 230202
MISGRI

GID CWA HOURLY WEATHER ROUNDUP
NATIONAL WEATHER SERVICE HASTINGS NE
900 PM CDT FRI JUL 22 2016

NOTE: "FAIR" INDICATES FEW OR NO CLOUDS BELOW 12,000 FEET WITH NO
SIGNIFICANT WEATHER AND/OR OBSTRUCTIONS TO VISIBILITY.

...SOUTH CENTRAL NEBRASKA...

CITY           SKY/WX    TMP DP  RH WIND       PRES   REMARKS
GRAND ISLAND   CLEAR     84  70  62 S3        29.91F
HASTINGS       CLEAR     83  72  69 CALM      29.92F HAZE
KEARNEY        CLOUDY    82  73  74 E3        29.93F
ORD            MOCLDY    87  78  74 SE7       29.92R HX 100
YORK           CLEAR     81  75  83 CALM      29.91S
AURORA         CLEAR     82  79  90 CALM      29.91S HX  91
LEXINGTON      CLOUDY    84  73  69 SE6       29.93F HX  90
HOLDREGE       MOCLDY    80  73  77 CALM      29.92F
HEBRON         PTCLDY    82  72  71 E5        29.90S

...NEBRASKA PANHANDLE...

CITY           SKY/WX    TMP DP  RH WIND       PRES   REMARKS
CHADRON        CLOUDY    80  57  45 SE18G32   29.94F
ALLIANCE       CLOUDY    68  64  87 SE10      30.01F
SCOTTSBLUFF    CLOUDY    76  60  57 E16       30.01S
SIDNEY         CLOUDY    71  63  75 NE28G35   30.05F THUNDER

...WESTERN AND NORTH CENTRAL NEBRASKA...

CITY           SKY/WX    TMP DP  RH WIND       PRES   REMARKS
VALENTINE      CLOUDY    87  71  58 E8        29.95F HX  93
AINSWORTH      CLOUDY    85  77  77 E3        29.97S HX  95
ONEILL         PTCLDY    86  76  73 E6        29.95R HX  96
BROKEN BOW     CLOUDY    81  75  82 E3        29.94F
IMPERIAL       CLOUDY    84  65  52 SE12      29.96F
NORTH PLATTE   CLOUDY    82  70  66 SE6       29.95S
MCCOOK         CLOUDY    84  72  67 E9        29.91F

...EASTERN NEBRASKA...

CITY           SKY/WX    TMP DP  RH WIND       PRES   REMARKS
NORFOLK        CLEAR     84  77  79 E3        29.91S HX  94
TEKAMAH        CLEAR     86  81  85 E8        29.89S HX 102
COLUMBUS       CLOUDY    82  70  65 SE7       29.92S
ALBION         MOCLDY    85  76  75 SE6       29.93R HX  94
OMAHA EPPLEY   MOCLDY    89  81  77 E12       29.89S HX 108
OFFUTT AFB     MOCLDY    86  83  89 E7        29.89S HX 105
MILLARD        CLOUDY    89  79  73 SE5       29.89S HX 104
LINCOLN        PTCLDY    86  70  58 CALM      29.89F HX  90
NEBRASKA CITY  MOCLDY    84  80  88 SE3       29.89S HX  98
BEATRICE       CLOUDY    80  72  75 N5        29.90F
FALLS CITY     PTCLDY    85  77  77 SE7       29.89S HX  95

...NORTHERN KANSAS...

CITY           SKY/WX    TMP DP  RH WIND       PRES   REMARKS
GOODLAND       CLEAR     87  54  32 S10       29.96F
HILL CITY      CLOUDY    86  71  60 CALM      29.90F HX  91
NORTON         CLEAR     86  63  45 E5        29.91F
SMITH CENTER   CLEAR     84  66  54 SE9       29.89S
BELOIT         CLEAR     86  70  58 SE7       29.86F HX  90
HAYS           CLOUDY    91  61  35 S10       29.90S HX  91
RUSSELL        PTCLDY    91  60  35 S8        29.89S HX  90
CONCORDIA      CLOUDY    80  69  69 S8        29.88S
SALINA         PTCLDY    94  70  45 S14       29.87F HX 100
TOPEKA         PTCLDY    89  72  56 SE10      29.90S HX  96



USA.gov is the U.S. government's official web portal to all federal, state and local government web resources and services.